Location: *
(50.9167°S, 179.4000°W)
Time: 22:00:49
(UTC+00:00)

Cosmos 1833 Rocket - Pass Details

Date: 03 March 2024
Orbit: 833 x 838 km, 71.0° (Epoch: 16 April)

Event Time Altitude Azimuth Distance (km) Brightness Sun altitude
Exits shadow 16:49:44 - 323° (NW) 3,092 5.1 -7.3°
Reaches altitude 10° 16:51:24 10° 321° (NW) 2,458 4.6 -7.0°
Maximum altitude 16:57:02 69° 237° (WSW) 906 2.8 -6.2°
Drops below altitude 10° 17:02:45 10° 153° (SSE) 2,487 5.8 -5.3°
Sets 17:05:14 0° 150° (SSE) 3,427 6.7 -4.9°
